Wetbulb
60.45 60.09 59.69 59.18 59.25 59.72 60.35 60.41 59.52 59.73 60.37 60.97 60.83 60.87 61.01 60.94 60.80 61.04 61.22 61.31 61.08 61.11 61.11 61.03 61.22 61.36 61.67 62.12 62.27 62.06 62.15 62.17 62.11 61.22 60.33 60.66 61.15 61.16 61.05 60.95 60.70 60.62 60.56 60.36 60.17 59.82 59.53 59.22 58.62 57.94 57.36 56.98 56.97 57.12 57.32 57.05 57.18 57.05 56.91 56.74 56.77 56.96 57.28 57.22 56.92 57.06 57.35 57.32 57.11
61.16 60.73 59.75 57.95 57.95 59.23 60.24 60.28 59.85 59.75 60.20 60.88 60.81 60.94 60.79 60.75 60.62 60.95 61.08 61.32 61.19 61.29 61.29 61.19 61.38 61.71 62.01 62.34 62.29 62.32 62.41 62.26 62.26 61.67 61.15 61.19 61.30 61.29 61.15 61.09 60.84 60.76 60.48 60.16 60.24 59.82 59.47 59.24 58.73 57.90 57.31 56.94 56.82 56.76 56.73 56.70 56.63 56.67 56.70 56.67 56.67 56.86 57.06 56.93 56.93 57.22 57.44 57.35 57.40
61.40 61.10 60.65 60.05 60.05 60.27 60.56 60.52 60.34 60.30 60.40 60.63 60.83 60.80 60.68 60.62 60.74 60.76 61.04 61.26 61.49 61.53 61.34 61.21 61.35 61.80 62.21 62.75 62.87 62.82 62.69 62.63 62.48 62.19 61.73 61.49 61.66 61.47 61.38 61.05 61.19 60.55 59.94 60.10 59.99 59.81 59.39 59.33 58.31 57.37 56.71 56.71 56.59 56.31 56.29 56.73 56.57 56.46 56.40 56.47 56.43 56.47 56.59 56.47 56.92 57.15 57.15 57.07 57.20
61.63 61.39 61.16 60.63 60.65 60.81 60.72 60.37 60.24 60.26 60.40 60.49 60.75 60.72 60.65 60.62 60.62 60.94 61.10 61.51 61.70 61.49 61.54 61.43 61.58 61.88 62.21 62.56 62.89 63.18 62.68 61.73 62.26 62.26 61.96 61.73 61.63 61.60 61.50 61.30 61.24 61.09 60.60 60.39 60.02 59.84 59.59 59.48 58.60 57.66 57.21 57.25 56.80 56.50 56.19 56.39 56.46 56.33 56.28 56.50 56.47 56.39 56.26 56.21 56.76 56.85 56.85 56.71 57.15
61.63 61.69 61.46 61.26 61.28 61.19 61.16 60.91 60.62 60.46 60.54 60.76 60.80 60.80 60.62 60.72 60.72 60.92 61.09 61.17 61.38 61.74 61.97 62.11 61.99 62.04 62.11 62.51 63.04 63.35 63.07 62.41 60.50 61.16 62.27 61.89 61.81 61.80 61.72 61.63 61.42 61.11 60.79 60.39 60.12 59.87 59.69 59.55 58.75 58.31 57.79 57.49 56.94 56.59 56.46 56.50 56.50 56.32 56.12 56.22 56.28 56.12 56.12 55.99 56.15 56.40 56.56 56.36 56.51
61.77 61.96 62.09 61.96 62.08 62.01 61.67 61.41 61.12 61.07 61.06 60.96 60.90 60.90 60.80 60.80 60.94 61.01 60.88 61.21 61.69 62.25 62.44 61.55 61.28 61.08 61.54 62.94 63.36 63.43 63.23 63.32 62.12 62.04 62.33 62.05 61.87 61.74 61.74 61.50 61.40 60.98 60.67 60.49 60.23 59.90 59.69 59.39 58.67 58.31 58.09 57.94 57.29 57.09 57.05 57.14 56.43 55.93 55.73 55.56 55.64 55.80 55.88 55.81 55.81 55.90 55.92 55.72 55.93
62.24 62.36 62.41 62.46 62.77 62.56 62.25 61.79 61.61 61.53 61.61 61.42 61.49 61.49 61.40 61.42 61.42 61.42 61.49 61.57 61.99 62.31 62.16 60.82 61.19 61.56 62.04 62.91 63.29 63.41 63.23 63.17 62.94 62.79 62.40 62.16 62.12 61.81 61.48 61.42 61.13 60.98 60.95 60.73 60.30 59.88 59.52 59.10 58.52 57.88 57.16 56.36 56.86 57.29 57.19 57.04 56.52 55.94 55.50 54.98 55.22 55.39 55.53 55.39 55.53 55.57 55.43 55.43 55.44
62.33 62.55 62.61 62.51 62.86 62.96 62.82 62.29 62.09 61.92 61.89 61.81 61.81 62.20 62.39 62.28 62.11 62.15 62.30 62.28 62.22 62.17 62.09 61.89 62.77 63.01 62.98 63.05 63.18 63.26 63.21 63.09 62.92 62.79 62.57 62.43 62.35 62.04 61.69 61.26 61.19 60.95 60.80 60.63 60.43 60.02 59.59 59.10 58.60 58.24 57.73 57.30 57.01 57.07 57.17 57.02 56.57 56.01 55.44 55.18 55.16 55.32 55.38 55.10 55.27 55.20 55.08 54.94 55.18
62.19 62.43 62.74 62.95 63.13 63.21 63.28 62.86 62.53 62.46 62.46 62.32 62.48 62.96 63.20 63.21 63.00 62.81 62.77 62.56 62.13 62.21 62.45 62.91 63.28 63.35 63.35 63.28 63.28 63.44 63.39 63.12 63.06 62.75 62.64 62.49 62.10 61.86 61.63 61.39 61.13 60.88 60.80 60.63 60.46 60.09 59.63 59.11 58.53 58.45 58.09 57.59 57.23 57.15 57.19 57.17 56.47 55.99 55.74 55.55 55.48 55.49 55.50 55.33 55.18 55.07 55.01 54.83 55.22
62.17 62.32 62.87 63.02 63.35 63.33 63.38 63.53 63.28 63.07 63.07 62.95 63.24 63.37 62.99 61.46 62.32 63.09 63.24 62.89 62.32 62.55 62.91 63.14 63.42 63.46 63.43 63.36 63.32 63.25 63.37 63.28 63.03 62.79 62.53 62.06 61.67 61.66 61.66 61.31 60.98 60.83 60.60 60.66 60.45 60.24 59.70 59.11 58.60 58.38 58.09 58.02 57.73 57.64 57.55 57.32 56.66 56.24 55.91 55.79 55.65 55.72 55.49 55.28 55.14 54.87 54.58 54.22 54.59
62.27 62.41 62.56 62.80 63.20 63.26 63.33 63.87 63.40 63.33 63.02 63.24 63.43 63.67 63.35 62.12 63.01 63.51 63.45 63.19 63.17 63.13 63.11 63.28 63.39 63.25 63.11 63.15 63.00 63.00 63.11 63.22 63.13 62.86 62.68 62.12 61.57 61.66 61.64 61.34 61.12 60.88 60.73 60.56 60.52 60.17 59.70 59.17 58.67 58.30 58.08 58.24 58.17 58.09 57.87 57.80 57.30 56.79 56.49 56.38 56.25 56.05 55.71 55.36 55.08 54.72 54.27 53.51 53.51
62.35 62.55 62.61 62.84 63.16 63.17 63.33 63.65 63.42 63.18 63.33 63.33 63.49 63.54 63.95 64.06 64.24 63.86 63.46 63.63 63.45 63.24 63.20 63.36 63.18 63.00 62.86 62.72 62.72 62.51 62.44 62.98 62.86 62.69 62.46 62.35 62.01 61.82 61.61 61.30 61.16 60.84 60.76 60.62 60.52 60.17 59.68 59.21 58.73 58.38 58.09 58.38 58.23 58.07 58.13 58.05 57.66 57.20 56.87 56.77 56.69 56.27 55.93 55.49 55.09 54.58 54.12 53.47 53.07
62.41 62.45 62.57 62.88 62.89 62.92 63.11 63.12 63.18 63.24 63.37 63.37 63.32 63.53 63.75 64.10 63.96 63.84 63.53 63.67 63.24 63.18 63.07 63.09 63.01 62.97 62.86 62.77 62.72 62.65 62.56 62.52 62.59 62.42 62.20 62.16 62.07 61.80 61.45 61.16 61.09 60.95 60.80 60.66 60.62 60.17 59.89 59.47 59.06 58.50 58.16 58.02 57.95 58.07 58.11 58.25 57.75 57.30 56.98 56.70 56.56 56.13 55.86 55.75 55.32 54.75 54.14 53.54 52.73
62.32 62.45 62.41 62.55 62.71 62.68 62.71 62.80 62.94 63.23 63.28 63.34 63.47 63.67 63.81 64.04 63.72 63.59 63.60 63.75 63.50 63.45 63.24 63.13 62.84 62.60 62.62 62.91 62.77 62.63 62.63 62.38 62.36 62.04 61.95 61.73 61.81 61.55 61.36 61.09 61.12 60.83 60.70 60.65 60.66 60.41 60.03 59.60 59.25 58.84 58.44 58.09 58.02 58.13 58.23 58.08 57.89 57.54 57.10 56.70 56.43 56.21 55.98 55.98 55.58 54.93 54.26 53.58 52.97
62.32 62.22 62.26 62.41 62.64 62.57 62.60 62.68 62.75 63.13 63.34 63.42 63.53 63.57 63.61 63.83 63.45 63.36 63.45 63.88 63.70 63.53 63.43 63.14 62.86 62.63 62.60 62.86 62.91 62.84 62.70 62.45 62.11 61.97 61.70 61.46 61.52 61.53 61.36 61.01 60.88 60.77 60.65 60.66 60.68 60.52 60.19 59.89 59.54 59.20 58.72 58.31 58.09 58.09 58.13 58.08 57.92 57.77 57.55 57.27 56.90 56.70 56.39 55.93 55.56 55.01 54.52 54.29 53.86
62.45 62.43 62.41 62.32 62.41 62.48 62.79 62.86 62.93 63.00 63.31 63.45 63.64 63.61 63.60 63.64 63.53 63.39 63.30 63.59 63.64 63.47 63.45 63.24 63.13 63.20 62.99 62.58 62.79 62.90 62.72 62.51 62.17 61.95 61.74 61.53 61.52 61.36 61.27 61.01 60.81 60.60 60.62 60.55 60.45 60.38 60.24 60.12 59.90 59.52 59.15 58.59 58.31 58.24 58.16 57.98 57.97 57.97 57.92 57.98 57.67 57.30 56.67 55.71 55.41 55.19 55.02 54.69 53.94
62.57 62.55 62.53 62.37 62.46 62.53 62.68 62.97 63.03 63.17 63.24 63.35 63.57 63.57 63.60 63.50 63.60 63.02 62.49 62.71 63.27 63.39 63.29 63.24 63.13 63.20 63.07 62.55 62.58 62.84 62.88 62.74 62.41 62.02 61.80 61.55 61.48 61.45 61.29 61.15 60.90 60.76 60.60 60.35 60.24 60.20 60.32 60.43 60.13 59.84 59.47 58.96 58.68 58.45 58.30 58.13 58.10 58.08 58.21 58.15 57.84 57.56 57.00 55.78 55.73 55.63 55.27 54.81 53.99
62.62 62.68 62.51 62.51 62.35 62.51 62.72 63.24 63.14 63.35 63.30 63.43 63.52 63.62 63.74 63.60 63.46 63.14 62.67 62.70 63.27 63.31 63.12 63.17 63.21 63.20 63.20 63.20 63.17 62.82 62.68 62.92 62.60 62.37 62.20 62.01 61.81 61.67 61.59 61.55 61.27 61.13 60.88 60.62 60.27 60.16 59.99 60.18 60.13 59.91 59.61 59.25 59.02 58.73 58.58 58.35 58.43 58.35 58.19 58.07 57.84 57.72 57.35 56.71 56.46 56.03 55.52 55.02 54.30
62.83 62.65 62.72 62.56 62.63 62.63 62.72 62.89 63.21 63.48 63.50 63.53 63.78 63.80 63.83 63.78 63.57 63.43 63.39 63.19 63.11 63.34 63.31 63.21 63.07 63.20 63.16 63.23 63.34 62.68 62.12 62.86 62.81 62.79 62.55 62.51 62.24 61.90 61.95 61.73 61.72 61.45 61.30 60.90 60.62 60.45 60.27 60.17 60.06 59.98 59.65 59.27 59.05 58.90 58.75 58.68 58.53 58.43 58.17 58.01 57.90 57.70 57.52 57.15 56.76 56.29 55.71 55.20 54.82
62.89 62.86 62.67 62.67 62.67 62.92 62.92 63.00 63.34 63.52 63.64 63.71 63.88 63.88 63.99 63.94 63.92 63.71 63.57 63.48 63.38 63.56 63.54 63.29 63.17 63.06 63.20 63.23 63.22 62.95 62.72 62.89 63.02 63.15 62.79 62.72 62.49 62.22 61.97 61.95 61.82 61.81 61.55 61.34 61.01 60.90 60.63 60.59 60.27 60.13 59.81 59.26 58.86 58.78 58.78 58.65 58.58 58.43 58.20 58.09 57.92 57.66 57.44 56.86 56.59 56.11 55.97 55.81 56.20
62.97 62.93 62.99 62.81 62.81 62.81 63.13 63.34 63.69 63.73 63.94 63.92 63.95 64.02 64.02 64.22 64.19 63.99 63.71 63.57 63.71 63.71 63.71 63.50 63.24 63.21 63.13 63.02 63.08 63.11 63.15 62.72 63.02 63.22 62.97 62.76 62.51 62.49 62.29 62.15 62.02 62.01 61.92 61.76 61.45 61.20 61.09 60.88 60.70 60.28 59.97 59.31 58.88 58.65 58.57 58.43 58.30 58.24 58.17 57.92 57.74 57.48 57.21 56.98 56.70 56.59 56.61 56.62 57.02
63.43 63.39 63.35 63.27 63.13 63.13 63.20 63.48 63.78 63.99 64.04 64.01 64.13 64.27 64.27 64.20 64.15 64.20 64.18 64.17 64.10 64.03 63.81 63.72 63.49 63.38 63.26 63.17 63.13 63.16 63.09 62.89 63.00 63.00 62.84 62.77 62.70 62.63 62.49 62.46 62.39 62.20 62.06 61.97 61.75 61.69 61.51 61.39 61.02 60.65 60.25 59.60 59.08 58.68 58.39 58.11 57.96 57.82 57.59 57.43 57.54 57.47 57.50 57.35 57.20 57.26 57.23 57.23 57.10
64.00 64.04 64.02 63.99 63.64 63.03 62.62 63.31 63.88 64.10 64.17 64.13 64.33 64.22 64.22 64.22 64.29 64.42 64.50 64.47 63.97 63.90 63.92 63.92 63.87 63.70 63.64 63.50 63.39 63.28 63.13 63.10 62.96 62.89 62.82 62.89 62.96 62.89 62.75 62.88 62.68 62.32 62.09 61.90 62.24 62.22 62.12 61.68 61.23 60.79 60.48 60.00 59.50 58.88 58.50 58.14 57.36 57.08 57.02 57.17 57.47 57.58 57.78 57.66 57.51 57.24 57.05 57.04 56.99
64.53 64.53 64.43 64.45 64.31 63.95 63.67 63.97 64.04 64.21 64.28 64.25 64.13 64.27 64.27 64.26 64.40 64.42 64.45 64.43 64.21 64.14 64.00 63.90 64.13 64.10 64.11 63.79 63.64 63.28 63.21 63.07 62.92 62.84 62.77 62.93 62.79 62.86 62.86 62.79 62.58 62.35 62.39 62.65 62.06 61.50 61.07 61.08 61.47 61.06 60.34 59.96 59.66 59.20 58.81 58.13 57.38 57.06 57.01 57.21 57.44 57.61 57.86 57.85 57.47 57.08 56.89 56.66 56.59
64.71 64.60 64.53 64.81 64.74 64.57 64.54 64.47 64.25 64.28 64.28 64.32 64.45 64.34 64.42 64.40 64.40 64.33 64.34 64.27 64.24 64.18 64.21 64.21 64.17 64.44 64.50 64.18 63.89 63.68 63.33 63.07 62.92 62.67 62.60 62.67 62.70 62.75 62.68 62.58 62.32 62.59 62.49 61.48 55.61 52.57 52.62 55.37 58.35 60.03 60.48 60.12 59.72 59.22 58.77 58.22 57.91 57.71 57.63 57.79 57.87 57.77 57.63 57.72 57.51 57.43 57.02 56.47 56.31
64.66 64.59 64.59 64.73 64.80 64.66 64.68 64.47 64.57 64.40 64.47 64.52 64.52 64.49 64.36 64.43 64.36 64.29 64.33 64.19 64.20 64.31 64.25 64.28 64.21 63.59 63.29 64.09 63.84 63.84 63.52 63.36 63.00 62.72 62.53 62.51 62.51 62.42 62.39 62.21 62.41 63.02 62.27 58.45 51.23 47.52 47.07 48.82 51.10 54.53 57.98 60.80 59.71 58.97 58.49 58.40 58.68 58.95 59.20 59.57 59.46 59.13 58.53 57.94 57.43 57.29 57.08 56.71 56.29
64.59 64.59 64.49 64.56 64.49 64.59 64.52 64.61 64.61 64.61 64.59 64.59 64.49 64.47 64.43 64.48 64.43 64.29 64.40 64.19 64.19 64.27 64.31 64.18 64.21 62.65 61.82 63.89 63.91 63.70 63.49 63.44 63.20 63.09 62.62 62.39 62.34 62.25 62.08 61.97 62.38 62.87 61.29 55.02 48.43 45.37 45.11 46.31 46.99 49.29 53.63 60.36 59.58 59.34 59.15 59.28 60.42 60.93 61.08 60.83 60.49 59.80 58.91 57.89 57.05 56.47 56.14 56.22 56.07
64.31 64.38 64.45 64.45 64.38 64.38 64.45 64.54 64.54 64.52 64.42 64.49 64.47 64.47 64.54 64.54 64.36 64.22 64.26 64.11 64.13 63.99 64.10 63.97 63.81 63.55 63.29 63.89 63.71 63.63 63.57 63.60 63.39 63.09 62.68 62.38 61.97 61.94 61.93 62.00 62.75 61.92 58.40 51.14 46.56 44.72 44.72 45.54 45.84 46.70 49.54 55.50 59.81 61.20 61.17 60.99 61.35 61.45 61.19 60.71 59.95 59.22 58.25 57.31 56.65 56.28 56.06 55.85 55.94
64.24 64.17 64.25 64.04 64.11 64.10 64.25 64.25 64.25 64.31 64.27 64.49 64.49 64.59 64.45 64.31 64.31 64.24 64.17 64.04 63.97 64.06 63.98 64.01 63.74 63.91 64.07 63.77 63.68 63.59 63.52 63.30 63.09 62.80 62.42 62.11 62.01 62.10 62.22 62.12 62.38 60.02 54.90 46.89 45.37 44.81 44.98 45.37 45.28 45.41 46.76 50.34 57.24 59.87 60.27 59.91 60.05 59.88 59.54 59.17 58.70 58.12 57.32 56.62 56.29 56.15 56.29 56.50 56.39
64.11 63.99 63.95 63.90 63.90 63.97 64.04 64.02 64.17 64.31 64.31 64.40 64.40 64.32 64.18 64.21 64.07 64.03 63.97 63.90 63.99 63.82 63.81 64.21 64.29 64.06 63.69 63.32 63.17 62.95 62.80 62.87 62.72 62.57 62.42 62.27 62.04 62.02 61.77 61.12 62.02 60.02 54.61 45.24 44.94 44.89 44.98 45.15 45.02 44.94 45.50 47.02 54.07 58.31 59.82 59.70 59.75 59.37 58.63 58.00 57.73 57.44 57.07 56.56 56.64 56.74 56.75 56.63 56.36
63.81 63.85 63.73 63.69 63.57 63.74 63.88 63.92 64.06 64.13 64.25 64.21 64.31 64.24 64.00 63.79 63.81 63.85 63.79 63.95 63.84 63.52 63.17 63.84 63.99 63.62 63.17 63.20 63.05 62.84 62.49 62.42 62.35 62.27 62.28 62.35 61.01 61.02 61.68 61.97 61.96 59.83 54.26 43.86 44.63 44.98 44.89 45.11 44.94 44.85 44.94 45.54 52.17 57.03 59.43 59.52 59.63 59.16 58.69 57.96 57.73 57.56 57.55 57.65 57.62 57.52 57.37 56.90 55.93
63.49 63.60 63.42 63.32 63.36 63.44 63.52 63.73 63.97 63.90 64.02 63.90 63.86 63.79 63.64 63.67 63.64 63.93 63.96 63.82 63.60 63.54 63.54 63.64 63.29 62.91 62.74 63.14 62.88 62.73 62.49 62.03 62.05 61.98 61.97 61.82 61.83 61.98 61.90 61.75 61.93 59.67 54.13 42.49 43.93 44.59 44.72 44.85 44.85 44.59 44.42 44.59 50.54 55.81 59.23 59.39 59.42 59.14 58.84 58.31 57.94 58.00 58.21 58.09 58.08 57.77 57.24 56.60 55.85
63.28 63.33 63.12 63.01 63.05 63.14 63.46 63.53 63.53 63.59 63.57 63.60 63.46 63.39 63.33 63.45 63.63 63.81 63.82 63.53 63.62 63.92 63.92 63.44 62.63 62.15 61.85 62.16 62.16 62.24 62.24 61.90 61.65 60.99 60.60 60.89 61.66 61.82 61.82 61.38 62.05 59.59 53.24 41.46 43.05 43.85 44.20 44.50 44.50 44.25 43.94 43.72 50.42 55.68 58.91 59.14 58.99 58.92 58.76 58.45 58.13 58.19 58.38 58.45 57.99 57.36 56.72 56.05 55.66
63.21 63.14 62.94 62.91 62.80 62.94 63.01 63.26 63.19 63.36 63.28 63.07 63.07 63.00 63.12 63.18 63.23 63.17 63.12 62.86 63.39 63.98 63.98 63.59 63.06 62.44 62.01 61.97 61.78 61.59 61.25 60.80 61.37 61.71 61.88 61.73 61.86 61.83 61.69 61.97 62.72 58.37 50.02 40.58 42.33 43.05 43.45 43.85 43.94 43.77 43.46 43.15 50.67 55.77 58.32 58.43 58.28 58.03 57.92 57.73 57.78 58.07 58.26 58.17 57.74 57.14 56.47 55.75 55.33
63.13 63.05 62.87 62.73 62.84 62.91 62.98 62.98 63.01 63.00 62.94 62.74 62.60 62.83 62.99 63.19 63.09 63.04 62.86 61.91 62.41 63.58 64.31 63.99 63.65 63.03 62.50 62.06 62.08 61.62 60.94 60.71 61.37 61.78 61.80 61.83 61.88 61.70 61.70 62.30 63.47 55.53 43.61 40.38 41.88 42.43 42.79 43.10 43.24 43.07 43.45 44.75 51.88 56.02 57.62 57.51 57.27 57.02 56.87 56.68 57.05 57.31 57.55 57.63 57.35 57.00 56.53 56.05 55.75
63.19 62.88 62.91 62.80 62.80 62.80 62.80 62.73 62.84 62.66 62.42 62.44 62.46 62.70 62.83 63.16 63.38 63.31 62.80 61.39 62.05 63.23 64.10 63.94 63.62 63.07 62.56 61.88 61.73 61.15 60.80 61.49 61.37 61.57 61.62 61.42 61.52 61.83 62.30 62.78 64.67 55.02 41.19 39.49 40.88 41.84 42.34 42.56 42.44 42.52 43.96 48.18 53.42 55.87 56.43 56.54 56.30 56.28 56.21 55.95 56.31 56.90 56.91 56.57 53.25 51.32 50.69 50.87 52.08
63.10 62.99 63.00 62.91 62.84 62.87 62.77 62.77 62.66 62.57 62.24 62.23 62.65 62.84 62.89 63.16 63.26 63.45 62.94 61.98 63.10 63.54 63.52 63.51 63.07 62.53 62.13 61.89 61.43 61.19 61.33 61.82 61.77 61.72 61.70 61.21 61.62 62.15 62.74 63.34 65.46 56.07 42.90 38.23 39.77 40.88 41.70 42.25 42.16 42.95 45.58 50.90 54.20 55.24 55.43 55.73 55.74 55.97 56.03 55.66 54.32 53.37 52.10 49.84 44.11 41.14 39.88 39.83 40.81
63.27 63.17 62.93 62.88 62.86 62.98 62.91 62.91 62.66 62.45 62.38 62.56 63.04 63.22 63.35 63.34 63.39 63.40 62.86 61.53 63.17 63.54 63.16 63.12 62.70 62.42 62.10 62.15 61.81 61.68 61.85 62.10 61.73 62.17 62.80 63.11 62.88 63.00 63.45 64.70 61.45 52.83 43.18 38.24 39.20 40.18 41.05 41.79 42.15 43.65 46.77 52.34 54.29 55.05 55.28 55.58 55.93 56.07 55.46 53.18 47.58 43.92 41.58 40.31 38.96 37.54 36.07 35.11 35.37
63.30 63.20 63.17 62.93 62.98 62.88 62.93 62.98 62.73 62.77 62.88 62.96 63.24 63.42 63.50 63.50 63.50 63.33 62.92 62.27 63.62 63.84 63.24 62.86 62.70 62.61 62.28 61.45 61.68 62.06 62.59 63.18 61.65 60.29 59.62 60.73 60.11 59.09 59.03 61.49 55.51 48.90 42.89 38.48 38.27 39.14 40.31 41.13 41.69 43.02 45.85 51.33 54.29 55.44 55.73 56.14 56.17 55.09 52.24 47.36 43.83 41.57 40.04 38.96 37.70 36.43 35.32 34.63 34.81
63.36 63.34 63.17 63.17 63.03 62.93 62.94 62.81 63.05 63.22 63.53 63.50 63.41 63.43 63.44 63.60 63.20 63.09 63.19 63.38 64.21 64.20 63.61 63.17 63.02 62.91 62.35 60.64 62.17 63.42 63.49 61.52 58.77 55.53 53.00 52.35 51.56 50.19 50.09 53.21 51.18 47.79 43.58 39.14 37.85 38.11 39.04 40.00 40.42 41.34 44.47 51.41 54.68 55.87 56.23 56.39 54.94 51.98 48.26 44.64 42.38 40.31 38.59 37.42 36.61 35.62 34.81 34.06 34.00
63.28 63.23 63.07 62.90 63.10 62.96 62.93 62.79 63.01 63.35 63.79 63.71 63.66 63.25 63.02 62.61 63.10 63.47 63.95 64.34 64.37 64.22 63.77 63.24 63.16 63.60 63.21 61.02 61.88 62.01 60.60 56.71 54.16 52.31 50.62 48.06 46.83 45.61 45.53 47.69 47.57 46.40 44.11 40.88 38.51 37.93 38.47 39.34 39.89 40.67 43.48 50.18 54.50 56.27 56.47 55.71 52.34 48.80 45.64 43.20 41.48 39.49 37.78 36.43 35.80 35.08 34.50 34.02 33.66
MSLP
1008.62 1008.94 1009.18 1009.18 1009.10 1009.02 1009.02 1009.02 1009.14 1009.30 1009.42 1009.54 1009.70 1009.82 1009.94 1010.02 1010.18 1010.34 1010.58 1010.74 1010.98 1011.18 1011.38 1011.54 1011.70 1011.86 1012.02 1012.18 1012.34 1012.58 1012.74 1012.90 1013.06 1013.22 1013.38 1013.50 1013.62 1013.74 1013.90 1014.02 1014.18 1014.30 1014.50 1014.66 1014.86 1015.02 1015.22 1015.34 1015.50 1015.62 1015.74 1015.86 1015.94 1016.02 1016.06 1016.10 1016.18 1016.26 1016.30 1016.38 1016.46 1016.54 1016.62 1016.74 1016.78 1016.86 1016.90 1016.94 1016.94
1008.46 1008.74 1008.98 1009.06 1009.02 1009.02 1009.02 1009.10 1009.18 1009.30 1009.34 1009.46 1009.54 1009.66 1009.78 1009.90 1010.02 1010.18 1010.38 1010.58 1010.82 1011.02 1011.18 1011.34 1011.50 1011.66 1011.82 1012.02 1012.18 1012.38 1012.58 1012.74 1012.94 1013.06 1013.22 1013.34 1013.46 1013.58 1013.74 1013.90 1014.02 1014.18 1014.30 1014.50 1014.70 1014.86 1015.06 1015.18 1015.38 1015.50 1015.58 1015.70 1015.82 1015.90 1015.90 1015.90 1015.98 1016.06 1016.18 1016.18 1016.26 1016.34 1016.46 1016.58 1016.58 1016.66 1016.74 1016.78 1016.82
1008.30 1008.50 1008.74 1008.86 1008.94 1009.02 1009.06 1009.14 1009.18 1009.22 1009.30 1009.38 1009.42 1009.54 1009.70 1009.82 1009.90 1010.02 1010.22 1010.42 1010.58 1010.82 1011.02 1011.18 1011.30 1011.46 1011.62 1011.82 1012.02 1012.18 1012.34 1012.54 1012.74 1012.90 1013.06 1013.18 1013.30 1013.38 1013.54 1013.70 1013.90 1013.98 1014.10 1014.30 1014.50 1014.66 1014.86 1015.02 1015.22 1015.34 1015.46 1015.50 1015.58 1015.70 1015.74 1015.74 1015.78 1015.90 1016.02 1016.02 1016.06 1016.18 1016.26 1016.30 1016.38 1016.46 1016.58 1016.62 1016.66
1008.18 1008.30 1008.54 1008.74 1008.86 1008.90 1008.98 1009.02 1009.06 1009.14 1009.18 1009.26 1009.30 1009.42 1009.54 1009.70 1009.78 1009.90 1010.02 1010.22 1010.42 1010.62 1010.82 1010.94 1011.06 1011.18 1011.38 1011.58 1011.74 1011.94 1012.14 1012.30 1012.50 1012.70 1012.86 1013.02 1013.10 1013.22 1013.34 1013.46 1013.70 1013.86 1013.94 1014.10 1014.26 1014.46 1014.62 1014.82 1015.02 1015.18 1015.26 1015.30 1015.38 1015.46 1015.50 1015.58 1015.58 1015.70 1015.78 1015.82 1015.90 1015.98 1016.02 1016.06 1016.18 1016.26 1016.34 1016.42 1016.46
1008.02 1008.14 1008.30 1008.46 1008.66 1008.82 1008.86 1008.90 1008.98 1009.02 1009.06 1009.10 1009.18 1009.30 1009.46 1009.54 1009.62 1009.74 1009.86 1010.02 1010.18 1010.34 1010.50 1010.66 1010.78 1010.94 1011.06 1011.26 1011.46 1011.70 1011.90 1012.10 1012.30 1012.46 1012.62 1012.78 1012.86 1013.02 1013.18 1013.30 1013.46 1013.62 1013.74 1013.90 1014.10 1014.26 1014.42 1014.66 1014.78 1014.90 1015.02 1015.06 1015.10 1015.18 1015.18 1015.30 1015.38 1015.50 1015.58 1015.66 1015.70 1015.74 1015.78 1015.90 1015.94 1016.02 1016.14 1016.22 1016.30
1007.90 1007.94 1008.02 1008.18 1008.42 1008.58 1008.74 1008.74 1008.82 1008.86 1008.90 1008.94 1009.06 1009.18 1009.26 1009.34 1009.46 1009.58 1009.74 1009.82 1009.90 1010.06 1010.22 1010.42 1010.58 1010.70 1010.86 1010.98 1011.26 1011.46 1011.70 1011.86 1012.02 1012.18 1012.38 1012.50 1012.66 1012.82 1012.98 1013.10 1013.26 1013.38 1013.54 1013.70 1013.90 1014.02 1014.22 1014.38 1014.58 1014.66 1014.74 1014.82 1014.86 1014.86 1014.90 1015.02 1015.18 1015.30 1015.38 1015.46 1015.50 1015.54 1015.58 1015.66 1015.74 1015.82 1015.90 1016.02 1016.10
1007.66 1007.74 1007.82 1007.94 1008.18 1008.34 1008.50 1008.58 1008.66 1008.70 1008.74 1008.78 1008.90 1009.02 1009.14 1009.18 1009.30 1009.42 1009.54 1009.58 1009.74 1009.90 1010.06 1010.22 1010.38 1010.50 1010.58 1010.74 1010.98 1011.22 1011.46 1011.66 1011.82 1011.98 1012.14 1012.26 1012.42 1012.58 1012.74 1012.86 1013.02 1013.18 1013.30 1013.46 1013.62 1013.82 1014.02 1014.14 1014.30 1014.42 1014.46 1014.58 1014.66 1014.66 1014.70 1014.82 1014.94 1015.06 1015.18 1015.22 1015.30 1015.34 1015.42 1015.46 1015.50 1015.62 1015.74 1015.74 1015.86
1007.46 1007.58 1007.62 1007.74 1007.90 1008.10 1008.30 1008.42 1008.46 1008.54 1008.58 1008.66 1008.74 1008.82 1008.94 1009.02 1009.14 1009.26 1009.38 1009.50 1009.62 1009.74 1009.90 1010.02 1010.18 1010.26 1010.34 1010.50 1010.66 1010.90 1011.18 1011.34 1011.58 1011.74 1011.90 1012.02 1012.18 1012.34 1012.46 1012.58 1012.74 1012.86 1013.02 1013.18 1013.38 1013.58 1013.74 1013.90 1014.02 1014.18 1014.26 1014.38 1014.46 1014.46 1014.46 1014.58 1014.70 1014.82 1014.86 1014.94 1015.02 1015.10 1015.18 1015.22 1015.30 1015.38 1015.50 1015.58 1015.66
1007.30 1007.38 1007.46 1007.54 1007.66 1007.86 1008.02 1008.18 1008.30 1008.38 1008.46 1008.50 1008.50 1008.58 1008.74 1008.86 1009.02 1009.14 1009.30 1009.46 1009.50 1009.58 1009.62 1009.82 1009.90 1010.02 1010.18 1010.30 1010.42 1010.58 1010.78 1011.02 1011.22 1011.42 1011.58 1011.74 1011.90 1012.06 1012.22 1012.34 1012.46 1012.58 1012.74 1012.86 1013.02 1013.22 1013.46 1013.66 1013.78 1013.86 1013.94 1014.02 1014.14 1014.18 1014.26 1014.34 1014.46 1014.54 1014.58 1014.70 1014.74 1014.82 1014.90 1015.02 1015.06 1015.18 1015.30 1015.42 1015.54
1007.06 1007.22 1007.34 1007.46 1007.54 1007.66 1007.82 1008.02 1008.10 1008.22 1008.30 1008.38 1008.42 1008.46 1008.62 1008.78 1008.86 1009.02 1009.14 1009.22 1009.34 1009.42 1009.50 1009.58 1009.74 1009.86 1010.02 1010.14 1010.18 1010.30 1010.50 1010.70 1010.86 1011.06 1011.30 1011.46 1011.62 1011.78 1011.90 1012.06 1012.18 1012.34 1012.46 1012.58 1012.74 1012.90 1013.10 1013.34 1013.46 1013.58 1013.62 1013.74 1013.78 1013.86 1013.94 1014.10 1014.18 1014.26 1014.30 1014.46 1014.50 1014.58 1014.66 1014.74 1014.86 1014.98 1015.14 1015.30 1015.46
1006.86 1007.02 1007.18 1007.34 1007.42 1007.50 1007.62 1007.82 1007.94 1008.06 1008.18 1008.26 1008.30 1008.34 1008.46 1008.62 1008.78 1008.86 1008.94 1009.06 1009.18 1009.30 1009.38 1009.42 1009.54 1009.70 1009.86 1009.98 1010.02 1010.10 1010.22 1010.38 1010.54 1010.74 1010.98 1011.14 1011.30 1011.46 1011.58 1011.74 1011.90 1012.02 1012.18 1012.30 1012.46 1012.58 1012.78 1012.98 1013.14 1013.22 1013.30 1013.38 1013.50 1013.58 1013.66 1013.78 1013.90 1014.02 1014.10 1014.18 1014.26 1014.34 1014.46 1014.54 1014.66 1014.82 1014.98 1015.14 1015.34
1006.74 1006.86 1007.02 1007.18 1007.26 1007.38 1007.50 1007.62 1007.78 1007.90 1007.98 1008.10 1008.18 1008.18 1008.30 1008.46 1008.58 1008.74 1008.86 1008.98 1009.10 1009.18 1009.22 1009.26 1009.38 1009.50 1009.62 1009.74 1009.86 1009.94 1010.02 1010.14 1010.26 1010.46 1010.66 1010.86 1011.02 1011.18 1011.30 1011.46 1011.58 1011.74 1011.86 1011.98 1012.10 1012.30 1012.46 1012.58 1012.74 1012.86 1013.02 1013.10 1013.26 1013.38 1013.46 1013.50 1013.66 1013.78 1013.90 1013.98 1014.06 1014.18 1014.30 1014.34 1014.46 1014.62 1014.82 1014.98 1015.18
1006.58 1006.70 1006.82 1006.98 1007.10 1007.26 1007.42 1007.50 1007.58 1007.66 1007.78 1007.90 1007.98 1008.02 1008.14 1008.26 1008.38 1008.54 1008.74 1008.86 1008.98 1009.02 1009.06 1009.10 1009.18 1009.30 1009.42 1009.50 1009.66 1009.78 1009.90 1009.94 1010.02 1010.18 1010.34 1010.50 1010.70 1010.86 1011.02 1011.18 1011.30 1011.46 1011.58 1011.70 1011.82 1011.98 1012.10 1012.18 1012.30 1012.46 1012.66 1012.82 1012.94 1013.02 1013.14 1013.26 1013.38 1013.50 1013.62 1013.74 1013.86 1013.94 1014.02 1014.10 1014.22 1014.42 1014.62 1014.78 1015.02
1006.38 1006.50 1006.62 1006.74 1006.90 1007.06 1007.18 1007.30 1007.38 1007.46 1007.54 1007.66 1007.74 1007.86 1007.94 1008.02 1008.18 1008.30 1008.50 1008.66 1008.74 1008.82 1008.86 1008.90 1009.02 1009.10 1009.18 1009.30 1009.38 1009.54 1009.66 1009.74 1009.82 1009.94 1010.06 1010.22 1010.38 1010.58 1010.74 1010.90 1011.06 1011.18 1011.30 1011.46 1011.54 1011.66 1011.74 1011.86 1011.98 1012.10 1012.30 1012.46 1012.58 1012.74 1012.86 1013.02 1013.10 1013.18 1013.30 1013.42 1013.58 1013.66 1013.74 1013.90 1014.02 1014.26 1014.50 1014.74 1014.86
1006.22 1006.30 1006.42 1006.54 1006.66 1006.78 1006.94 1007.02 1007.14 1007.18 1007.30 1007.38 1007.46 1007.58 1007.66 1007.78 1007.90 1008.02 1008.22 1008.38 1008.46 1008.58 1008.62 1008.74 1008.82 1008.86 1008.94 1009.02 1009.14 1009.26 1009.38 1009.50 1009.62 1009.74 1009.86 1009.98 1010.14 1010.30 1010.46 1010.62 1010.78 1010.90 1011.02 1011.18 1011.26 1011.34 1011.46 1011.54 1011.62 1011.74 1011.90 1012.06 1012.26 1012.42 1012.58 1012.74 1012.86 1012.90 1013.02 1013.10 1013.26 1013.42 1013.58 1013.74 1013.98 1014.18 1014.38 1014.58 1014.74
1005.94 1006.06 1006.18 1006.30 1006.42 1006.50 1006.58 1006.70 1006.78 1006.86 1006.98 1007.06 1007.14 1007.26 1007.38 1007.50 1007.58 1007.74 1007.94 1008.10 1008.18 1008.30 1008.42 1008.50 1008.58 1008.62 1008.74 1008.82 1008.90 1009.02 1009.18 1009.30 1009.38 1009.50 1009.62 1009.74 1009.86 1010.02 1010.18 1010.30 1010.46 1010.58 1010.74 1010.86 1011.02 1011.10 1011.18 1011.26 1011.34 1011.46 1011.58 1011.74 1011.94 1012.10 1012.26 1012.46 1012.58 1012.70 1012.78 1012.90 1013.02 1013.22 1013.46 1013.66 1013.90 1014.06 1014.22 1014.42 1014.58
1005.62 1005.78 1005.90 1006.02 1006.10 1006.18 1006.26 1006.30 1006.42 1006.50 1006.58 1006.74 1006.86 1006.98 1007.10 1007.22 1007.30 1007.46 1007.62 1007.78 1007.90 1008.02 1008.18 1008.26 1008.30 1008.42 1008.54 1008.62 1008.74 1008.82 1008.94 1009.06 1009.18 1009.26 1009.34 1009.46 1009.54 1009.66 1009.82 1009.94 1010.14 1010.26 1010.42 1010.58 1010.74 1010.82 1010.86 1011.02 1011.14 1011.26 1011.38 1011.50 1011.70 1011.86 1012.02 1012.18 1012.34 1012.50 1012.62 1012.78 1012.86 1013.06 1013.30 1013.50 1013.70 1013.90 1014.02 1014.18 1014.30
1005.30 1005.46 1005.58 1005.70 1005.78 1005.90 1005.94 1006.02 1006.06 1006.18 1006.26 1006.38 1006.54 1006.66 1006.82 1006.94 1007.06 1007.18 1007.30 1007.46 1007.58 1007.74 1007.90 1007.98 1008.02 1008.18 1008.30 1008.38 1008.46 1008.58 1008.66 1008.78 1008.86 1008.98 1009.02 1009.14 1009.18 1009.30 1009.46 1009.58 1009.74 1009.90 1010.06 1010.22 1010.38 1010.46 1010.58 1010.74 1010.90 1011.06 1011.18 1011.34 1011.46 1011.62 1011.78 1011.94 1012.10 1012.30 1012.46 1012.62 1012.78 1012.90 1013.10 1013.30 1013.46 1013.62 1013.82 1013.94 1014.02
1004.98 1005.14 1005.30 1005.42 1005.46 1005.58 1005.62 1005.74 1005.78 1005.90 1005.94 1006.06 1006.18 1006.30 1006.50 1006.66 1006.74 1006.86 1007.02 1007.14 1007.30 1007.46 1007.58 1007.70 1007.82 1007.90 1007.98 1008.06 1008.18 1008.30 1008.38 1008.46 1008.58 1008.62 1008.70 1008.78 1008.86 1008.98 1009.10 1009.22 1009.42 1009.58 1009.74 1009.90 1010.02 1010.18 1010.30 1010.46 1010.66 1010.86 1011.02 1011.18 1011.30 1011.46 1011.58 1011.74 1011.90 1012.06 1012.26 1012.46 1012.58 1012.74 1012.90 1013.06 1013.22 1013.38 1013.50 1013.62 1013.78
1004.58 1004.74 1004.90 1005.02 1005.18 1005.26 1005.38 1005.46 1005.50 1005.58 1005.70 1005.78 1005.90 1006.02 1006.18 1006.30 1006.46 1006.62 1006.74 1006.86 1006.98 1007.14 1007.30 1007.46 1007.58 1007.66 1007.74 1007.82 1007.90 1008.02 1008.10 1008.14 1008.22 1008.30 1008.42 1008.46 1008.58 1008.66 1008.74 1008.86 1009.02 1009.18 1009.38 1009.54 1009.70 1009.86 1010.02 1010.18 1010.38 1010.58 1010.78 1010.98 1011.18 1011.30 1011.46 1011.58 1011.74 1011.90 1012.02 1012.18 1012.34 1012.46 1012.62 1012.82 1012.98 1013.14 1013.26 1013.38 1013.54
1004.22 1004.38 1004.50 1004.66 1004.86 1005.02 1005.10 1005.18 1005.22 1005.30 1005.42 1005.50 1005.58 1005.74 1005.82 1005.98 1006.14 1006.30 1006.46 1006.54 1006.66 1006.86 1007.02 1007.18 1007.30 1007.38 1007.46 1007.54 1007.62 1007.74 1007.74 1007.82 1007.90 1008.02 1008.10 1008.18 1008.30 1008.38 1008.46 1008.58 1008.74 1008.86 1009.02 1009.18 1009.38 1009.58 1009.70 1009.90 1010.02 1010.26 1010.46 1010.74 1010.90 1011.10 1011.30 1011.46 1011.58 1011.70 1011.82 1011.94 1012.06 1012.22 1012.42 1012.58 1012.74 1012.86 1013.02 1013.14 1013.26
1003.86 1003.98 1004.18 1004.34 1004.50 1004.66 1004.82 1004.90 1005.02 1005.10 1005.18 1005.26 1005.30 1005.42 1005.54 1005.66 1005.82 1005.98 1006.10 1006.26 1006.42 1006.58 1006.74 1006.86 1007.02 1007.10 1007.18 1007.26 1007.34 1007.46 1007.46 1007.54 1007.58 1007.70 1007.82 1007.94 1008.02 1008.14 1008.22 1008.30 1008.46 1008.58 1008.74 1008.86 1009.02 1009.22 1009.42 1009.58 1009.74 1009.94 1010.18 1010.46 1010.62 1010.86 1011.02 1011.22 1011.38 1011.50 1011.62 1011.74 1011.90 1012.02 1012.18 1012.30 1012.46 1012.58 1012.74 1012.86 1012.98
1003.46 1003.62 1003.78 1004.02 1004.18 1004.30 1004.50 1004.66 1004.74 1004.86 1004.94 1005.02 1005.10 1005.18 1005.30 1005.42 1005.50 1005.62 1005.82 1006.02 1006.14 1006.30 1006.42 1006.58 1006.74 1006.82 1006.90 1006.98 1007.06 1007.18 1007.22 1007.30 1007.38 1007.46 1007.58 1007.70 1007.78 1007.90 1008.02 1008.14 1008.26 1008.38 1008.46 1008.58 1008.70 1008.86 1009.06 1009.30 1009.50 1009.66 1009.90 1010.14 1010.30 1010.54 1010.74 1010.98 1011.18 1011.30 1011.42 1011.50 1011.62 1011.74 1011.86 1011.98 1012.14 1012.26 1012.46 1012.58 1012.74
1003.14 1003.30 1003.46 1003.58 1003.74 1003.94 1004.14 1004.30 1004.46 1004.58 1004.66 1004.74 1004.82 1004.90 1005.02 1005.18 1005.26 1005.38 1005.54 1005.74 1005.90 1006.02 1006.14 1006.26 1006.38 1006.54 1006.62 1006.74 1006.78 1006.90 1007.02 1007.10 1007.18 1007.26 1007.34 1007.46 1007.58 1007.66 1007.78 1007.90 1008.02 1008.10 1008.18 1008.26 1008.38 1008.54 1008.74 1009.02 1009.22 1009.42 1009.58 1009.82 1010.02 1010.18 1010.42 1010.70 1010.90 1011.06 1011.18 1011.26 1011.34 1011.42 1011.50 1011.66 1011.82 1011.98 1012.18 1012.30 1012.46
1002.82 1003.02 1003.18 1003.30 1003.46 1003.58 1003.74 1003.90 1004.06 1004.18 1004.30 1004.42 1004.54 1004.66 1004.78 1004.90 1005.02 1005.18 1005.30 1005.42 1005.58 1005.70 1005.82 1005.94 1006.06 1006.22 1006.42 1006.54 1006.62 1006.70 1006.78 1006.86 1006.98 1007.06 1007.18 1007.26 1007.34 1007.46 1007.58 1007.66 1007.74 1007.82 1007.90 1008.02 1008.22 1008.46 1008.58 1008.74 1008.94 1009.14 1009.30 1009.50 1009.70 1009.90 1010.18 1010.46 1010.62 1010.78 1010.86 1010.98 1011.06 1011.14 1011.22 1011.38 1011.54 1011.74 1011.94 1012.10 1012.22
1002.58 1002.74 1002.86 1003.02 1003.14 1003.30 1003.42 1003.58 1003.70 1003.82 1003.94 1004.06 1004.22 1004.38 1004.50 1004.62 1004.74 1004.90 1005.02 1005.18 1005.26 1005.38 1005.58 1005.74 1005.82 1005.94 1006.14 1006.30 1006.38 1006.50 1006.58 1006.66 1006.74 1006.82 1006.90 1007.02 1007.10 1007.18 1007.30 1007.38 1007.46 1007.50 1007.62 1007.78 1008.10 1008.34 1008.50 1008.62 1008.78 1008.90 1009.02 1009.22 1009.46 1009.70 1009.98 1010.18 1010.34 1010.50 1010.62 1010.74 1010.86 1010.94 1011.02 1011.18 1011.34 1011.54 1011.74 1011.94 1012.10
1002.34 1002.50 1002.62 1002.74 1002.86 1003.02 1003.18 1003.22 1003.38 1003.50 1003.62 1003.74 1003.94 1004.06 1004.18 1004.30 1004.46 1004.62 1004.74 1004.86 1004.94 1005.06 1005.22 1005.42 1005.54 1005.70 1005.86 1005.98 1006.18 1006.30 1006.38 1006.46 1006.54 1006.62 1006.70 1006.74 1006.82 1006.86 1006.98 1007.06 1007.14 1007.22 1007.34 1007.58 1007.90 1008.18 1008.34 1008.46 1008.62 1008.78 1008.90 1009.02 1009.26 1009.54 1009.74 1009.90 1010.10 1010.22 1010.38 1010.50 1010.66 1010.78 1010.90 1011.06 1011.22 1011.42 1011.62 1011.86 1011.98
1002.18 1002.26 1002.38 1002.54 1002.66 1002.78 1002.86 1003.02 1003.14 1003.26 1003.38 1003.46 1003.58 1003.74 1003.90 1004.02 1004.18 1004.34 1004.46 1004.58 1004.70 1004.82 1004.98 1005.14 1005.26 1005.42 1005.58 1005.74 1005.90 1005.98 1006.10 1006.26 1006.38 1006.46 1006.50 1006.58 1006.58 1006.66 1006.70 1006.74 1006.82 1006.86 1007.06 1007.38 1007.70 1007.94 1008.14 1008.30 1008.46 1008.62 1008.78 1008.98 1009.14 1009.34 1009.58 1009.74 1009.86 1010.02 1010.18 1010.38 1010.50 1010.70 1010.86 1011.02 1011.14 1011.30 1011.46 1011.62 1011.78
1001.90 1002.02 1002.18 1002.34 1002.46 1002.58 1002.66 1002.82 1002.90 1003.02 1003.06 1003.18 1003.30 1003.46 1003.62 1003.82 1003.98 1004.10 1004.22 1004.34 1004.46 1004.62 1004.78 1004.90 1005.02 1005.18 1005.38 1005.54 1005.58 1005.70 1005.82 1006.02 1006.14 1006.26 1006.38 1006.46 1006.46 1006.50 1006.50 1006.54 1006.50 1006.58 1006.82 1007.18 1007.42 1007.62 1007.86 1008.06 1008.26 1008.46 1008.66 1008.86 1008.98 1009.18 1009.30 1009.46 1009.58 1009.74 1009.94 1010.18 1010.34 1010.58 1010.74 1010.90 1011.02 1011.18 1011.30 1011.42 1011.50
1001.58 1001.74 1001.90 1002.02 1002.18 1002.30 1002.42 1002.50 1002.58 1002.70 1002.82 1002.94 1003.14 1003.30 1003.46 1003.62 1003.78 1003.90 1004.02 1004.14 1004.30 1004.42 1004.50 1004.62 1004.82 1005.02 1005.14 1005.22 1005.34 1005.50 1005.66 1005.74 1005.90 1006.06 1006.22 1006.30 1006.34 1006.34 1006.34 1006.34 1006.34 1006.42 1006.58 1006.90 1007.14 1007.34 1007.58 1007.78 1008.02 1008.22 1008.46 1008.62 1008.82 1008.94 1009.06 1009.18 1009.30 1009.46 1009.70 1009.90 1010.18 1010.42 1010.58 1010.74 1010.90 1011.02 1011.10 1011.18 1011.30
1001.30 1001.46 1001.62 1001.78 1001.90 1002.02 1002.10 1002.18 1002.30 1002.42 1002.58 1002.74 1002.94 1003.14 1003.30 1003.42 1003.54 1003.66 1003.78 1003.90 1004.02 1004.14 1004.26 1004.42 1004.62 1004.78 1004.86 1005.02 1005.18 1005.38 1005.54 1005.62 1005.74 1005.90 1006.02 1006.14 1006.22 1006.26 1006.30 1006.30 1006.26 1006.26 1006.42 1006.74 1006.86 1007.02 1007.26 1007.50 1007.74 1007.98 1008.22 1008.46 1008.58 1008.74 1008.82 1008.94 1009.10 1009.30 1009.54 1009.78 1010.02 1010.22 1010.42 1010.58 1010.74 1010.86 1010.98 1011.10 1011.26
1001.02 1001.18 1001.34 1001.46 1001.58 1001.70 1001.78 1001.90 1002.02 1002.18 1002.38 1002.58 1002.74 1002.90 1003.06 1003.18 1003.30 1003.42 1003.54 1003.70 1003.82 1003.98 1004.14 1004.30 1004.46 1004.58 1004.74 1004.90 1005.10 1005.26 1005.38 1005.50 1005.66 1005.74 1005.86 1005.94 1006.06 1006.14 1006.14 1006.18 1006.10 1006.02 1006.22 1006.70 1006.74 1006.82 1006.98 1007.18 1007.46 1007.74 1007.98 1008.22 1008.42 1008.54 1008.62 1008.82 1008.98 1009.18 1009.46 1009.70 1009.90 1010.10 1010.30 1010.46 1010.66 1010.74 1010.86 1011.02 1011.14
1000.74 1000.90 1001.06 1001.18 1001.30 1001.42 1001.54 1001.66 1001.82 1001.98 1002.18 1002.38 1002.54 1002.66 1002.82 1002.90 1003.02 1003.18 1003.30 1003.46 1003.66 1003.82 1003.98 1004.14 1004.30 1004.46 1004.66 1004.86 1005.02 1005.18 1005.34 1005.46 1005.50 1005.58 1005.70 1005.82 1005.90 1005.98 1006.02 1006.02 1005.90 1005.74 1005.94 1006.58 1006.66 1006.70 1006.74 1006.90 1007.18 1007.46 1007.74 1008.02 1008.18 1008.30 1008.46 1008.74 1008.86 1009.10 1009.30 1009.58 1009.78 1010.02 1010.18 1010.38 1010.50 1010.62 1010.78 1010.94 1011.02
1000.46 1000.62 1000.78 1000.90 1001.02 1001.14 1001.30 1001.46 1001.58 1001.78 1001.98 1002.18 1002.30 1002.46 1002.54 1002.70 1002.86 1003.02 1003.14 1003.26 1003.42 1003.58 1003.66 1003.82 1004.02 1004.18 1004.46 1004.70 1004.94 1005.14 1005.26 1005.30 1005.38 1005.46 1005.58 1005.66 1005.74 1005.82 1005.86 1005.78 1005.66 1005.58 1005.78 1006.38 1006.54 1006.62 1006.70 1006.74 1006.94 1007.22 1007.54 1007.90 1008.02 1008.18 1008.30 1008.58 1008.78 1008.98 1009.14 1009.34 1009.58 1009.86 1010.02 1010.18 1010.26 1010.42 1010.58 1010.74 1010.86
1000.18 1000.34 1000.50 1000.62 1000.74 1000.90 1001.02 1001.22 1001.42 1001.58 1001.78 1001.98 1002.10 1002.18 1002.30 1002.46 1002.62 1002.78 1002.90 1003.02 1003.18 1003.34 1003.50 1003.66 1003.82 1004.06 1004.30 1004.58 1004.74 1004.94 1005.10 1005.22 1005.30 1005.38 1005.46 1005.54 1005.58 1005.70 1005.70 1005.58 1005.38 1005.66 1006.10 1006.22 1006.38 1006.54 1006.74 1006.82 1006.98 1007.22 1007.50 1007.82 1008.02 1008.18 1008.30 1008.58 1008.74 1008.86 1009.02 1009.22 1009.46 1009.70 1009.86 1010.02 1010.14 1010.18 1010.30 1010.42 1010.54
999.86 1000.02 1000.22 1000.34 1000.50 1000.66 1000.82 1001.02 1001.18 1001.38 1001.58 1001.74 1001.86 1001.98 1002.14 1002.26 1002.38 1002.50 1002.66 1002.78 1003.02 1003.18 1003.38 1003.58 1003.82 1004.10 1004.34 1004.50 1004.62 1004.78 1004.94 1005.06 1005.14 1005.22 1005.30 1005.42 1005.50 1005.54 1005.50 1005.38 1005.06 1005.74 1006.46 1006.46 1006.42 1006.50 1006.70 1006.90 1007.10 1007.34 1007.62 1007.90 1008.06 1008.26 1008.46 1008.62 1008.74 1008.86 1009.02 1009.30 1009.54 1009.74 1009.90 1010.18 1010.54 1010.66 1010.62 1010.58 1010.54
999.54 999.74 999.90 1000.10 1000.26 1000.42 1000.58 1000.74 1000.94 1001.14 1001.30 1001.42 1001.58 1001.74 1001.86 1002.02 1002.14 1002.26 1002.42 1002.58 1002.82 1003.02 1003.18 1003.46 1003.74 1004.02 1004.18 1004.38 1004.58 1004.70 1004.78 1004.86 1005.02 1005.10 1005.18 1005.18 1005.22 1005.26 1005.26 1005.22 1005.18 1005.94 1006.82 1006.98 1006.86 1006.74 1006.74 1006.90 1007.18 1007.46 1007.74 1007.98 1008.18 1008.34 1008.54 1008.74 1008.86 1009.02 1009.26 1009.50 1009.86 1010.10 1010.42 1010.82 1011.34 1011.54 1011.50 1011.38 1011.30
999.26 999.42 999.58 999.82 1000.02 1000.18 1000.30 1000.46 1000.66 1000.82 1000.94 1001.06 1001.22 1001.42 1001.58 1001.74 1001.90 1002.02 1002.18 1002.38 1002.58 1002.78 1002.98 1003.22 1003.46 1003.70 1003.90 1004.14 1004.34 1004.50 1004.62 1004.74 1004.86 1004.90 1004.98 1004.98 1004.98 1005.02 1005.10 1005.22 1005.90 1006.70 1007.26 1007.38 1007.30 1007.18 1007.10 1007.10 1007.22 1007.42 1007.62 1007.90 1008.14 1008.30 1008.54 1008.74 1008.94 1009.14 1009.42 1009.86 1010.46 1010.90 1011.26 1011.54 1011.74 1011.90 1012.02 1012.02 1011.94
998.98 999.18 999.34 999.54 999.74 999.90 1000.02 1000.22 1000.38 1000.50 1000.62 1000.82 1000.98 1001.14 1001.30 1001.46 1001.66 1001.74 1001.90 1002.02 1002.30 1002.50 1002.74 1002.94 1003.18 1003.34 1003.58 1003.82 1004.06 1004.22 1004.38 1004.50 1004.74 1005.02 1005.30 1005.26 1005.30 1005.42 1005.54 1005.78 1006.62 1007.22 1007.54 1007.66 1007.66 1007.62 1007.58 1007.58 1007.46 1007.42 1007.50 1007.74 1007.94 1008.18 1008.38 1008.58 1008.86 1009.22 1009.66 1010.18 1010.66 1011.06 1011.42 1011.74 1011.98 1012.18 1012.30 1012.30 1012.22
998.74 998.90 999.10 999.30 999.46 999.58 999.78 999.94 1000.06 1000.18 1000.38 1000.54 1000.70 1000.86 1001.02 1001.18 1001.34 1001.46 1001.58 1001.74 1001.98 1002.26 1002.50 1002.70 1002.86 1003.06 1003.30 1003.58 1003.78 1003.94 1004.18 1004.58 1005.14 1005.62 1005.98 1006.02 1006.18 1006.30 1006.46 1006.58 1007.02 1007.42 1007.70 1007.94 1008.02 1008.02 1007.98 1007.98 1007.90 1007.82 1007.70 1007.70 1007.90 1008.10 1008.30 1008.46 1008.86 1009.34 1009.86 1010.30 1010.74 1011.14 1011.58 1011.90 1012.14 1012.30 1012.46 1012.50 1012.50
998.54 998.74 998.90 999.06 999.22 999.38 999.54 999.70 999.82 999.94 1000.10 1000.30 1000.46 1000.58 1000.70 1000.82 1001.02 1001.18 1001.30 1001.54 1001.78 1002.02 1002.30 1002.50 1002.66 1002.86 1003.06 1003.38 1003.66 1003.98 1004.46 1005.02 1005.66 1006.02 1006.30 1006.54 1006.74 1006.98 1007.14 1007.26 1007.50 1007.74 1008.02 1008.26 1008.34 1008.30 1008.22 1008.18 1008.22 1008.22 1008.18 1007.98 1007.98 1008.06 1008.26 1008.58 1008.98 1009.46 1009.94 1010.38 1010.74 1011.18 1011.62 1012.02 1012.26 1012.46 1012.58 1012.70 1012.78
Wind_Speed
14 13 12 10 9 8 8 7 8 8 8 9 10 10 10 10 10 9 9 9 8 8 9 9 9 10 11 14 14 14 14 14 14 14 14 14 14 14 14 13 13 12 12 12 11 11 10 11 9 8 7 6 7 8 8 8 9 10 10 10 10 10 11 12 12 12 13 13 10
14 14 13 11 9 8 7 7 7 8 8 9 9 10 10 9 9 9 9 9 9 8 8 8 10 11 13 15 15 15 15 15 15 15 15 15 15 15 15 13 13 13 13 13 12 11 10 10 9 8 7 7 7 8 9 9 10 10 11 13 10 10 10 11 12 12 13 13 11
14 14 14 13 11 10 8 8 8 10 10 10 9 9 9 9 9 9 9 9 10 10 9 9 10 12 14 15 15 14 15 15 16 16 15 15 15 16 15 14 14 14 14 13 12 11 10 11 10 8 7 7 8 9 9 10 10 10 11 13 10 9 8 9 10 11 11 10 11
14 14 14 14 14 13 11 9 10 11 11 10 10 10 10 9 9 9 9 10 11 11 10 10 11 12 14 15 15 15 15 15 16 16 15 15 15 16 16 15 15 15 14 14 13 13 12 12 9 8 8 9 10 10 9 9 10 10 9 10 9 9 9 8 9 9 9 9 10
15 14 14 14 15 14 13 11 12 12 11 10 10 10 10 9 9 9 9 10 10 11 11 12 11 12 13 14 16 16 16 17 16 15 15 15 16 16 16 16 16 15 15 14 14 14 13 13 9 8 9 10 9 9 10 10 11 10 9 8 8 8 8 8 8 8 8 8 9
15 15 15 14 16 15 13 12 14 13 11 10 11 11 10 9 9 10 10 10 11 12 13 14 13 12 13 15 16 16 16 16 15 15 15 16 16 16 16 17 17 16 15 15 15 15 14 14 10 8 8 9 9 10 11 12 11 10 10 8 8 8 8 9 8 8 8 9 10
16 16 16 16 16 16 14 14 14 13 13 11 13 13 13 12 12 12 12 11 11 11 12 12 12 13 13 15 15 15 15 15 15 16 16 16 16 16 17 17 17 17 16 15 16 15 14 14 10 9 8 8 8 10 12 12 11 11 10 10 9 8 9 10 9 8 9 12 13
17 17 17 16 16 16 16 16 15 13 13 11 13 14 15 14 14 14 13 12 11 11 11 10 13 14 15 15 15 15 16 16 16 16 16 15 16 17 17 18 18 18 17 17 16 16 15 13 10 9 9 8 8 9 12 14 13 13 12 12 10 9 9 10 9 9 10 13 14
16 17 17 16 16 16 16 17 16 15 14 13 14 15 15 15 15 15 13 12 11 11 11 11 13 15 16 15 15 15 16 16 16 16 16 16 17 17 17 17 18 18 18 17 17 17 16 13 10 10 10 9 9 10 12 15 15 15 14 13 11 11 10 10 11 11 11 12 13
16 16 16 16 16 16 16 17 16 16 16 15 16 16 15 14 14 14 13 11 11 12 12 12 14 15 16 16 16 15 15 15 16 16 17 17 17 18 18 16 18 18 17 17 17 17 17 13 12 12 12 11 12 13 14 15 16 16 15 11 11 12 13 12 12 12 12 11 11
17 17 16 15 16 16 16 16 16 16 16 16 16 16 15 14 14 13 12 12 12 13 14 14 14 15 15 15 15 15 15 14 15 16 17 17 18 18 18 17 18 18 18 17 16 16 15 13 14 15 15 14 14 15 15 16 16 17 16 12 13 14 14 14 13 13 12 12 12
17 17 17 16 17 17 16 16 15 15 16 16 17 16 16 15 15 14 14 14 14 14 15 15 15 15 15 14 14 15 15 15 15 16 16 17 18 18 19 18 18 19 19 18 17 15 14 14 16 17 18 17 14 13 14 16 16 16 16 15 15 14 15 15 14 13 11 12 12
18 17 17 17 18 18 17 16 15 15 16 17 17 16 16 15 16 16 16 16 15 14 14 15 15 15 15 14 14 14 15 15 16 16 16 17 18 18 19 19 19 19 19 18 17 15 15 16 18 19 19 18 15 14 14 16 17 17 17 17 16 16 15 16 15 13 12 12 12
19 18 18 18 19 18 17 17 15 15 15 17 17 16 16 15 16 16 16 16 16 15 14 14 14 14 14 15 15 15 16 16 16 17 17 17 17 18 18 18 19 18 18 17 17 17 18 17 19 19 19 19 18 16 16 16 17 17 17 18 17 17 16 16 15 13 12 12 12
20 19 19 19 19 18 17 17 15 15 15 17 17 16 16 15 16 16 16 17 17 16 15 14 14 14 15 16 17 17 17 17 17 18 18 18 18 18 18 18 19 18 18 17 17 18 19 19 20 19 19 19 19 18 17 17 17 17 17 17 17 16 16 14 13 12 11 12 12
20 20 20 20 19 18 17 17 14 14 15 16 16 16 16 15 15 15 16 17 16 15 15 16 15 15 15 16 17 17 17 17 18 18 18 18 18 18 19 19 19 19 19 19 18 18 19 19 19 19 19 19 19 18 18 17 17 16 16 16 16 15 14 13 12 12 12 12 13
21 21 21 20 20 20 19 17 15 14 15 16 17 17 16 15 14 15 16 17 16 15 16 17 16 15 15 16 16 17 17 17 17 17 18 18 19 19 19 19 19 19 19 20 19 19 19 18 18 18 18 18 18 17 17 17 16 16 16 15 15 14 14 13 13 13 13 14 14
22 22 21 21 21 21 20 19 17 17 17 18 18 17 16 16 15 15 16 17 17 17 18 19 18 17 16 17 16 16 15 16 17 17 18 18 19 19 20 20 19 19 19 20 20 20 20 19 18 18 17 17 16 16 16 16 15 15 15 15 14 14 14 13 13 13 14 14 15
22 22 22 22 22 22 21 21 20 19 19 18 18 17 17 18 18 17 17 17 18 19 19 19 19 18 18 18 17 16 15 16 18 18 19 19 19 20 20 20 19 19 19 19 20 20 20 19 19 18 17 16 15 15 15 15 15 15 15 14 14 14 14 14 14 14 14 15 14
23 23 23 23 23 22 22 21 21 20 19 18 19 19 19 19 19 19 19 19 19 19 20 20 19 19 19 19 19 18 17 16 18 19 20 20 20 20 20 20 20 20 19 19 19 19 19 19 19 18 17 17 16 15 15 15 14 14 14 14 14 14 14 14 14 14 14 14 13
23 23 23 23 23 22 22 21 21 21 20 19 20 20 20 20 20 20 20 20 19 19 20 20 20 20 20 20 20 20 18 16 17 19 19 19 20 20 20 19 19 19 19 19 19 19 19 19 18 18 17 17 16 16 16 15 15 15 14 13 13 13 14 14 14 14 15 14 13
23 23 23 23 23 23 22 22 21 21 21 21 21 21 21 21 20 20 20 20 19 20 20 20 20 20 20 20 20 20 19 16 17 18 18 18 18 19 18 18 18 18 18 19 18 19 19 18 18 18 17 16 16 16 16 15 15 15 15 14 14 14 14 14 14 14 14 13 13
22 22 22 22 22 23 22 22 22 22 21 21 21 21 21 21 20 20 20 20 19 19 20 19 19 20 20 20 20 20 19 18 18 18 18 17 17 18 18 17 18 18 18 17 17 17 17 17 17 17 17 16 16 17 16 16 15 14 14 15 15 15 15 14 14 14 13 12 12
22 22 20 19 21 22 23 22 22 22 22 22 22 22 22 21 20 20 20 20 20 20 20 18 17 18 20 20 20 20 20 20 19 19 19 18 18 18 18 17 17 17 17 14 13 13 14 13 14 15 16 15 16 16 15 15 14 14 15 15 16 16 15 14 14 13 12 13 12
22 22 21 19 21 21 22 22 22 23 23 23 23 22 22 21 21 20 20 20 20 20 20 19 18 18 18 19 19 20 20 20 20 20 20 19 19 18 17 16 15 14 13 11 11 11 11 11 11 13 14 14 14 13 13 13 14 14 14 14 14 14 14 14 13 13 12 12 11
22 21 21 21 21 21 21 22 22 23 23 23 23 22 22 22 21 21 21 21 21 20 20 20 19 18 17 17 18 19 19 19 19 19 19 19 19 19 17 15 14 12 11 10 10 11 12 12 11 11 12 12 12 12 11 12 13 14 14 13 12 12 11 11 12 12 10 9 9
21 21 22 21 21 21 22 21 21 22 22 22 23 23 22 22 20 20 21 21 21 20 20 19 18 17 16 16 18 19 19 17 18 18 19 19 19 19 18 16 14 12 10 10 11 12 13 14 13 12 11 11 11 11 10 10 11 12 12 12 11 11 11 11 11 11 10 9 9
21 21 22 22 22 22 22 21 21 21 22 22 22 22 22 22 22 21 21 21 20 19 18 17 17 15 14 14 17 18 19 18 17 17 18 18 19 19 18 16 14 12 11 11 13 14 15 15 15 13 12 10 9 9 9 9 10 10 10 10 10 11 11 11 10 10 10 10 10
22 22 22 22 22 22 22 22 22 22 22 22 22 21 21 21 22 22 21 21 20 19 17 14 13 12 12 13 15 17 18 18 17 16 16 17 19 19 19 18 17 15 13 13 15 16 17 17 17 16 14 12 9 9 9 10 10 10 10 10 10 10 11 10 10 9 10 10 11
22 22 22 22 23 22 22 22 22 22 21 20 20 21 21 21 21 21 21 21 20 19 16 14 13 13 14 15 15 15 15 16 15 15 16 18 19 19 19 18 17 16 13 14 17 18 19 19 19 18 17 15 12 11 11 11 11 10 10 9 10 11 12 11 11 11 10 10 10
22 22 22 22 22 23 23 23 22 22 21 19 20 21 21 21 21 21 21 20 19 18 16 15 15 15 16 14 14 14 14 14 15 15 16 18 18 18 18 19 19 17 14 13 17 19 20 20 20 20 19 18 14 12 12 12 11 10 10 9 11 12 12 11 11 11 11 10 10
22 22 22 22 22 22 22 22 22 21 21 21 21 21 21 21 21 20 19 19 18 17 17 15 16 16 15 14 14 14 14 15 15 15 16 16 17 18 18 18 20 18 15 12 17 19 21 21 21 21 21 20 16 14 13 13 12 11 11 11 12 12 11 10 9 9 9 10 10
21 22 22 22 22 22 22 22 21 21 21 21 21 21 21 21 20 19 19 18 17 17 18 17 17 16 15 14 14 14 15 16 16 16 16 16 17 17 18 17 18 17 15 12 16 19 20 22 22 22 22 21 16 15 15 14 12 11 11 11 11 11 11 10 8 7 8 9 9
21 21 22 22 22 22 21 21 21 20 20 20 21 21 21 20 20 19 18 17 16 16 16 16 16 16 15 14 14 14 15 15 15 16 17 17 17 17 17 16 15 12 9 13 16 18 19 21 22 22 22 20 15 13 14 15 13 12 11 11 10 10 9 9 8 8 9 10 10
21 21 21 21 21 21 20 20 20 20 20 20 20 20 20 19 19 19 18 17 15 15 14 15 14 14 14 14 14 14 15 15 15 16 16 17 17 18 18 19 16 8 4 13 15 17 18 18 19 20 20 17 12 11 12 14 13 12 12 11 10 9 9 7 7 7 8 9 10
21 21 21 21 21 20 20 20 20 20 20 20 20 20 19 19 18 17 17 16 15 15 15 14 13 12 13 14 14 15 15 16 16 16 16 17 18 19 19 21 16 5 5 5 11 15 17 17 18 18 17 13 9 9 10 11 11 11 10 9 8 8 6 3 2 4 4 3 3
20 20 20 20 20 20 20 20 20 20 20 20 19 19 19 19 18 17 16 15 15 16 15 14 14 14 14 15 15 15 15 16 16 17 17 18 19 19 19 19 10 1 8 6 2 9 14 16 17 17 15 11 9 9 9 9 8 8 8 6 3 2 3 6 8 10 10 11 10
20 20 20 20 19 19 19 19 19 20 20 19 18 18 18 17 17 16 15 15 15 15 16 15 15 16 16 17 16 16 17 17 16 15 14 14 14 14 14 11 1 8 11 12 7 0 7 13 17 17 15 11 10 10 9 8 8 7 5 2 6 8 9 8 7 8 10 13 13
19 19 19 19 19 19 19 19 19 19 19 18 18 17 17 16 15 15 14 14 14 15 15 15 16 16 17 17 16 17 17 15 9 4 4 6 5 4 4 3 9 12 12 13 11 7 1 6 11 15 15 11 11 10 9 8 7 5 4 6 7 8 8 7 7 7 9 13 16
18 18 18 18 18 18 18 19 19 18 17 17 17 17 17 16 15 14 14 13 14 14 14 15 16 16 15 14 14 13 10 5 6 10 12 12 14 14 14 13 13 13 13 13 12 9 5 2 5 9 11 10 9 9 7 6 5 5 6 7 7 7 7 7 6 7 8 11 14
16 17 17 17 17 18 18 18 18 17 16 16 16 16 15 14 14 14 13 12 13 13 13 13 15 15 13 9 7 5 7 12 13 14 14 15 15 15 15 15 14 14 13 13 12 9 6 3 1 3 5 6 7 7 6 4 5 7 8 7 7 7 7 6 6 7 8 9 10
Wind_Direction
178 180 188 202 206 206 201 193 189 189 191 192 191 191 192 194 191 187 184 186 186 187 189 191 192 193 195 195 194 194 195 197 198 198 198 198 199 200 200 201 200 197 194 195 194 194 196 200 201 203 205 207 209 210 211 211 210 210 211 211 212 212 213 215 216 217 217 219 220
183 182 186 196 201 203 200 194 192 192 193 193 193 193 193 195 193 189 186 187 188 189 190 192 194 195 196 196 195 195 195 197 198 198 199 199 200 200 200 200 202 200 198 196 195 194 196 199 201 204 206 206 208 210 211 212 211 211 212 213 212 212 212 215 217 217 218 219 220
187 185 187 192 196 198 198 196 194 194 194 194 194 194 194 196 196 193 189 188 189 190 192 194 196 196 196 197 196 195 196 197 197 198 199 200 201 202 202 201 203 203 201 198 196 196 196 198 201 204 206 206 207 208 210 212 212 212 213 213 213 212 212 214 215 216 217 218 219
192 190 188 190 194 196 198 198 197 195 195 194 194 195 195 196 197 196 193 191 191 192 194 196 198 198 197 197 196 196 196 196 197 198 199 200 202 203 203 202 203 204 203 200 199 199 198 197 200 204 208 210 210 209 209 209 210 211 212 213 214 214 213 214 213 214 215 217 219
197 194 192 190 192 194 197 200 199 198 196 195 195 195 196 196 198 198 197 195 194 194 196 198 199 199 198 198 197 196 196 196 196 197 199 200 202 203 204 204 203 204 204 203 202 201 200 198 201 205 209 211 211 211 209 207 208 209 211 212 214 214 215 214 213 212 213 215 216
198 198 195 191 191 193 197 201 201 200 198 197 197 197 197 196 198 199 200 200 198 197 197 199 200 201 200 198 197 196 196 197 197 198 199 200 201 203 204 206 205 205 205 204 203 202 201 200 203 206 209 212 214 214 212 208 209 209 210 211 212 214 215 215 214 212 212 212 213
199 200 198 194 192 193 196 200 202 202 202 201 200 200 200 199 199 201 202 203 201 198 197 199 202 203 203 200 197 196 195 196 197 199 200 201 201 202 204 205 206 206 206 205 204 204 203 203 205 207 208 209 214 215 213 210 209 210 211 211 211 212 214 214 213 212 212 213 213
199 201 201 198 194 194 196 200 202 203 204 204 203 202 202 202 202 202 203 205 205 202 200 200 204 206 206 204 199 197 196 197 198 199 200 202 202 203 205 206 207 207 207 207 205 204 204 205 207 208 209 208 212 214 214 212 211 212 213 213 211 211 211 214 213 212 213 215 214
198 201 203 203 199 196 197 200 203 205 206 208 206 204 203 205 205 204 204 206 207 207 205 204 205 207 208 208 204 201 199 199 199 199 200 202 203 204 205 206 208 208 209 209 208 207 205 205 207 209 210 209 211 212 213 214 213 214 214 215 214 211 211 213 213 213 213 214 213
197 199 202 205 203 201 199 201 204 207 209 211 210 208 206 206 208 208 207 207 208 209 209 208 207 207 209 210 209 206 203 202 201 201 201 203 204 205 206 207 208 209 210 210 209 208 207 206 208 211 212 212 214 215 215 214 215 215 215 216 215 214 212 212 213 213 212 211 211
199 199 201 204 204 204 203 203 205 207 209 212 212 211 209 207 209 210 211 210 211 212 212 212 210 209 209 210 211 210 208 206 205 204 203 204 205 207 207 208 209 209 210 210 210 209 208 208 210 212 214 215 216 217 217 216 216 216 216 217 216 216 215 213 213 212 211 209 208
201 200 201 203 205 206 206 205 206 208 209 212 213 213 211 209 209 211 212 213 213 213 214 213 212 211 210 211 212 212 212 210 209 208 207 206 207 208 209 210 210 211 211 211 210 210 210 210 211 213 215 215 216 217 218 217 216 216 217 217 217 217 217 215 212 211 210 209 208
203 202 202 203 205 206 208 208 208 209 210 211 213 213 212 211 209 210 212 214 214 214 214 214 214 214 213 212 212 212 213 213 212 211 210 209 209 209 210 211 212 213 213 213 212 212 212 213 213 214 215 215 215 216 217 217 216 216 216 217 217 217 217 217 214 212 211 210 209
205 205 205 204 205 206 208 209 210 210 211 211 212 213 213 212 210 210 211 213 214 215 215 214 215 215 215 214 213 213 213 214 214 214 213 212 211 210 211 212 213 214 214 214 214 214 214 215 215 215 215 216 216 216 216 216 217 217 218 217 218 218 218 218 216 213 211 211 213
205 206 207 206 206 206 208 209 210 211 211 211 211 212 212 212 211 210 211 212 214 214 215 215 215 215 216 216 216 215 214 215 215 216 215 214 213 212 212 213 214 214 214 215 215 215 216 217 217 217 217 217 217 217 216 216 218 219 220 220 219 219 218 218 216 213 212 213 216
206 207 208 208 208 208 208 209 210 211 211 212 211 211 212 212 211 211 211 212 213 214 215 215 216 215 216 217 217 217 216 216 216 217 217 216 215 214 213 214 214 214 215 215 215 216 217 218 219 219 219 219 219 218 218 217 218 220 221 222 221 220 218 216 215 215 216 216 218
207 207 208 209 210 210 210 210 211 211 211 212 211 211 212 212 212 211 211 211 212 213 214 215 216 216 216 216 217 217 217 217 217 217 217 218 217 216 215 214 215 215 215 216 216 216 217 218 219 220 221 221 221 220 219 218 219 220 221 222 222 221 219 216 216 218 219 220 221
208 208 209 210 211 212 213 213 213 213 213 213 212 212 212 212 213 212 212 211 213 214 215 216 216 217 217 217 216 217 217 218 218 218 218 218 218 218 217 216 215 215 216 217 217 217 217 217 218 219 221 222 222 222 221 220 220 219 220 221 221 221 221 219 219 219 220 221 222
209 210 210 211 213 214 215 215 215 215 215 214 213 213 213 213 214 214 213 213 213 214 216 217 217 218 218 218 217 217 217 218 219 219 219 219 220 220 219 218 217 216 216 217 218 219 219 218 217 217 219 221 222 222 222 221 220 220 219 220 221 222 222 222 221 221 222 222 223
211 211 211 212 213 215 216 217 218 217 217 217 216 215 214 214 214 215 215 215 214 215 216 217 218 218 219 219 219 218 218 219 220 220 220 220 221 221 221 221 219 218 217 218 219 220 219 219 217 216 216 218 220 221 221 221 221 221 222 222 222 223 223 223 223 223 223 223 222
212 212 212 213 214 215 217 218 219 219 219 219 218 217 216 215 215 216 217 216 215 215 216 218 219 219 220 220 220 220 219 219 220 221 222 222 222 223 223 223 222 220 219 218 219 220 220 220 218 216 215 215 217 218 220 220 222 224 225 225 225 224 224 223 223 223 223 223 222
212 212 213 213 214 216 218 219 220 221 221 221 220 220 219 217 217 217 217 218 217 217 217 218 219 220 221 221 221 221 221 221 221 222 223 224 224 224 224 225 225 224 223 221 220 219 219 219 218 217 215 214 215 216 217 219 222 224 226 227 226 225 224 223 223 222 222 223 222
212 213 213 214 215 216 217 219 220 221 221 222 222 221 221 220 219 218 218 218 218 218 218 218 219 220 221 222 223 223 223 223 222 223 223 224 225 225 225 225 226 226 226 225 222 220 218 218 218 217 216 215 215 215 215 216 219 222 224 226 226 225 224 222 221 220 220 219 219
213 213 213 214 214 215 216 217 219 220 221 222 222 222 222 222 221 220 219 218 219 219 219 219 219 220 221 223 224 225 225 225 224 224 224 224 225 225 225 225 226 227 227 226 222 218 215 214 214 215 215 215 215 215 214 213 215 218 222 224 224 224 223 220 218 216 215 215 215
213 213 214 215 215 215 216 217 218 219 220 221 221 222 222 222 222 221 221 220 220 220 220 221 220 219 220 222 224 225 226 227 226 226 226 225 225 225 225 225 226 226 225 224 219 211 206 204 208 211 214 214 214 213 211 210 213 216 219 221 222 221 219 215 212 210 209 209 207
214 214 215 216 217 217 217 218 218 219 219 220 220 221 222 222 223 223 223 222 221 221 221 221 221 220 219 220 223 224 226 227 228 228 228 227 226 225 225 225 225 224 222 220 211 202 195 193 197 203 208 210 209 208 209 211 213 215 216 217 217 215 212 208 206 203 201 200 200
215 215 216 217 218 219 219 220 220 220 220 220 220 220 221 221 222 223 223 224 223 222 221 222 222 221 221 221 222 223 224 226 228 229 230 230 229 227 226 225 224 223 219 213 200 192 188 186 186 188 194 202 204 204 207 211 213 214 213 212 211 207 204 201 200 198 198 200 203
215 216 216 217 218 219 220 221 221 221 221 221 221 220 221 221 222 223 224 224 224 224 223 223 222 222 221 222 222 223 223 224 225 228 230 232 232 231 230 228 226 222 216 203 190 184 182 180 177 177 179 188 195 200 205 212 212 210 208 207 206 204 203 201 200 201 203 208 210
216 216 216 217 218 219 220 220 221 222 222 222 222 222 221 222 223 224 225 225 224 224 224 223 222 221 221 222 223 223 224 224 224 225 227 230 233 233 233 233 231 227 215 194 183 179 178 176 174 173 173 178 187 199 208 214 213 210 206 203 203 204 204 205 207 210 213 217 217
215 216 216 217 218 218 219 219 220 221 221 222 222 222 222 223 223 224 225 225 225 225 223 222 221 221 222 222 223 223 223 223 223 224 225 228 231 234 235 235 236 232 219 191 179 176 175 175 174 174 174 176 186 199 210 215 213 210 206 202 202 204 207 210 214 219 223 226 223
215 215 216 217 218 218 219 219 219 220 220 220 221 221 222 223 223 224 224 225 225 225 224 222 222 222 222 221 221 222 223 224 224 224 226 228 231 233 235 237 240 238 225 192 179 176 175 175 176 176 177 178 186 197 208 214 213 210 206 203 202 203 207 213 220 226 230 230 225
214 215 216 217 218 218 219 219 219 219 219 220 220 221 221 222 223 223 224 224 225 225 224 222 221 221 220 219 220 221 223 224 225 226 227 229 232 234 236 238 241 240 229 197 181 177 177 176 178 178 179 180 186 195 205 212 215 213 210 207 206 207 210 216 225 231 233 230 222
214 215 216 217 218 218 219 219 219 219 219 219 220 220 221 222 222 222 223 223 224 224 223 221 219 218 218 218 220 222 224 227 228 229 230 232 234 237 239 240 243 241 230 198 183 180 180 179 179 179 180 180 185 194 204 213 217 217 213 210 210 213 219 224 228 230 228 224 218
213 214 216 217 218 218 219 219 219 219 219 220 221 221 221 222 222 222 222 221 221 222 221 220 218 218 218 219 221 223 226 228 230 232 234 236 239 241 243 243 243 241 220 182 182 182 183 181 180 179 179 178 182 193 204 213 218 219 216 212 213 216 222 229 228 224 219 215 213
214 214 216 217 218 218 219 219 219 219 219 220 221 221 222 222 222 222 222 221 220 219 219 218 217 218 220 223 225 226 227 229 231 233 236 238 242 244 245 246 240 235 173 168 177 181 182 182 179 177 175 175 182 195 207 214 218 219 218 217 220 224 229 234 236 233 226 218 216
214 215 216 217 218 218 219 219 219 219 219 220 221 221 221 222 222 223 222 221 220 218 216 214 213 216 221 226 228 229 230 231 233 234 236 238 241 243 245 248 237 214 101 160 175 178 178 179 176 174 172 173 186 202 212 216 218 220 221 225 230 234 236 235 354 0 349 329 283
216 216 217 218 218 219 219 219 219 219 220 220 220 221 221 222 222 222 221 221 220 218 215 211 211 214 219 224 229 231 233 234 235 236 237 238 239 240 241 245 244 49 52 15 183 180 176 174 172 170 170 178 196 209 214 217 220 223 226 229 250 309 11 57 54 45 35 28 21
217 217 218 218 219 219 219 220 220 220 220 220 220 220 220 221 222 221 220 219 219 218 216 213 212 214 218 222 226 230 233 235 237 241 246 247 245 245 245 241 354 46 40 20 11 346 181 175 172 172 174 187 200 207 210 214 220 222 214 128 86 73 66 63 60 54 48 42 39
218 219 219 220 220 220 220 221 221 221 222 221 220 220 219 220 221 220 219 217 217 217 217 216 216 217 219 220 224 227 229 232 234 264 330 334 339 332 335 44 63 57 43 28 20 12 332 197 183 180 181 191 199 204 208 214 214 199 149 103 98 91 84 78 72 65 57 51 48
219 220 221 222 222 222 222 222 222 222 222 222 222 221 220 219 219 219 218 216 215 215 217 219 220 221 221 220 223 223 219 188 83 64 54 44 42 40 42 51 55 52 43 31 23 17 6 301 212 195 191 196 201 206 209 207 183 148 127 116 111 102 92 83 78 72 64 57 52
220 221 222 223 223 224 224 224 224 223 222 222 223 223 222 220 219 218 217 215 212 213 215 219 222 223 220 213 202 167 124 98 81 73 67 60 53 47 44 45 43 40 36 29 21 18 21 42 125 193 202 212 213 212 205 179 145 133 128 123 117 110 104 95 86 78 71 65 59